Flag for Isle of Man Weather past 2 weeks in Ramsey, Isle of Man

Now
50 °F

Passing clouds.


Feels Like: 42 °F
Forecast: N/A
Wind: 28 mph from West

Location: Isle Of Man / Ronaldsway Airport

Current Time: Feb 28, 2015 at 9:34:58 PM

Latest Report: Feb 28, 2015 at 8:50 PM


Visibility: N/A

Pressure: 29.09 "Hg

Humidity: 76%

Dew point: 43 °F

Location of RamseyLocation

Historic Weather in Ramsey — Graph

°F

Ramsey temperature yesterday

Maximum temperature yesterday: 46 °F (at 1:20 PM)
Minimum temperature yesterday: 39 °F (at 12:50 AM)
Average temperature yesterday: 43 °F

Past Weeks' High & Low Weather Summary

 TemperatureHumidityPressure
High50 °F (Feb 25, 11:50 AM)100% (Feb 16, 2:50 AM)30.57 "Hg (Feb 16, 2:50 AM)
Low37 °F (Feb 16, 11:50 PM)46% (Feb 26, 4:20 PM)28.82 "Hg (Feb 23, 4:50 PM)
Average44 °F82%29.74 "Hg
* Reported Feb 13 7:20 PM — Feb 28 7:50 PM, Ramsey, Weather by CustomWeather, © 2015

Note: Actual official high and low records may vary slightly from our data, if they occured in-between our weather recording intervals... More about our weather records

Advertising

Ramsey weather history for previous 24 hours

 ConditionsComfort  
Time TempWeatherWind HumidityBarometerVisibility
7:50 PM
Sat, Feb 28
50 °FPassing clouds.32 mph88%29.06 "HgN/A
7:20 PM48 °FPartly cloudy.33 mph100%29.09 "Hg5 mi
6:50 PM48 °FLow clouds.33 mph100%29.09 "Hg4 mi
6:20 PM46 °FLow clouds.35 mph100%29.09 "Hg5 mi
5:50 PM46 °FLight rain. Low clouds.40 mph100%29.12 "Hg3 mi
5:20 PM46 °FLight rain. Low clouds.43 mph100%29.15 "Hg2 mi
4:50 PM46 °FRain. Low clouds.36 mph100%29.18 "Hg2 mi
4:20 PM46 °FRain. Mostly cloudy.33 mph93%29.21 "Hg2 mi
3:50 PM46 °FLight rain. Partly sunny.32 mph93%29.27 "Hg3 mi
3:20 PM46 °FLight rain. Mostly cloudy.30 mph93%29.30 "Hg3 mi
2:50 PM46 °FLight rain. Partly sunny.29 mph93%29.36 "Hg4 mi
2:20 PM46 °FPassing clouds.23 mph93%29.39 "HgN/A
1:50 PM46 °FPassing clouds.22 mph87%29.42 "HgN/A
1:20 PM46 °FPassing clouds.21 mph93%29.45 "HgN/A
12:50 PM46 °FLight rain. Scattered clouds.18 mph93%29.50 "Hg5 mi
12:20 PM46 °FLight rain. Passing clouds.16 mph93%29.50 "Hg5 mi
11:50 AM46 °FLight rain. Overcast.18 mph93%29.53 "Hg5 mi
11:20 AM46 °FOvercast.16 mph87%29.56 "HgN/A
10:50 AM48 °FMore clouds than sun.15 mph82%29.56 "HgN/A
10:20 AM48 °FMostly cloudy.15 mph87%29.56 "HgN/A
9:50 AM48 °FPartly sunny.15 mph87%29.59 "HgN/A
9:20 AM46 °FPartly sunny.15 mph93%29.59 "Hg5 mi
8:50 AM46 °FPartly sunny.15 mph93%29.59 "Hg6 mi
8:20 AM46 °FPartly sunny.15 mph93%29.59 "Hg5 mi
7:50 AM46 °FBroken clouds.13 mph93%29.62 "Hg5 mi
7:20 AM46 °FCloudy.15 mph93%29.62 "Hg4 mi
6:50 AM46 °FMostly cloudy.16 mph93%29.62 "HgN/A
6:20 AM46 °FMostly cloudy.16 mph93%29.62 "HgN/A
5:50 AM46 °FMostly cloudy.12 mph93%29.65 "HgN/A
5:20 AM46 °FLow clouds.17 mph93%29.65 "HgN/A
4:50 AM46 °FOvercast.17 mph93%29.65 "Hg5 mi
3:50 AM46 °FPartly cloudy.17 mph100%29.62 "Hg5 mi
1:50 AM46 °FLow clouds.29 mph100%29.68 "Hg4 mi
12:50 AM46 °FLow clouds.30 mph93%29.71 "Hg5 mi
11:50 PM
Fri, Feb 27
46 °FLow clouds.31 mph93%29.74 "HgN/A
10:50 PM46 °FLight rain. Mostly cloudy.30 mph93%29.74 "Hg5 mi
9:50 PM46 °FOvercast.29 mph87%29.77 "HgN/A
Weather by CustomWeather, © 2015

See weather overviewHow to use our weather pages